Regional Weather Roundup
Issued by NWS

Home | Current Version | Previous Version | Graphics & Text | Print | Product List | Glossary On
Versions: 1 2 3 4 5 6 7 8 9 10 11 12 13 14 15 16 17 18 19 20 21 22 23 24 25 26 27 28 29 30 31 32 33 34 35 36 37 38 39 40 41 42 43 44 45 46 47 48 49 50
000
ASUS43 KDMX 131707
RWRIA

WEATHER ROUNDUP FOR IOWA
NATIONAL WEATHER SERVICE DES MOINES IA
1200 PM CDT SUN JUL 13 2014

NOTE: "FAIR" INDICATES FEW OR NO CLOUDS BELOW 12,000 FEET WITH NO
SIGNIFICANT WEATHER AND/OR OBSTRUCTIONS TO VISIBILITY.

* - THESE STATIONS ARE NOT NWS STATIONS...THUS NOT UNDER NWS
QUALITY CONTROL.  THEY ALSO DO NOT REPORT WEATHER SUCH
AS PRECIPITATION OR FOG.

IAZ001>003-012>014-020>022-031>034-043>046-131800-
   NORTHWEST IOWA

CITY           SKY/WX    TMP DP  RH WIND       PRES   REMARKS
CARROLL *      PTSUNNY   79  68  69 NW9       30.03S HX  81
CHEROKEE *     MOSUNNY   79  61  53 W6        30.04S HX  80
DENISON *      MOSUNNY   81  68  65 W10G16    30.03S HX  83
LE MARS *      MOSUNNY   79  66  65 VRB7      30.05S HX  81
ORANGE CITY *  SUNNY     79  64  61 NW6       30.05F HX  81
SHELDON *      SUNNY     79  66  65 N8        30.04S HX  81
SIOUX CITY     SUNNY     81  67  62 NW7       30.04F HX  83
SPENCER        SUNNY     79  65  62 W8        30.04S HX  81
STORM LAKE *   MOSUNNY   77  72  83 W8        30.05S
$$

IAZ055>058-069>071-079>083-090>094-131800-
   SOUTHWEST IOWA

CITY           SKY/WX    TMP DP  RH WIND       PRES   REMARKS
ATLANTIC *     SUNNY     81  68  65 NW9       30.03F HX  83
AUDUBON *      SUNNY     84  72  65 NW6       30.05F HX  89
CLARINDA *     MOSUNNY   81  70  69 N6        30.05S HX  84
COUNCIL BLFS * SUNNY     82  70  65 N6        30.04F HX  86
CRESTON *      MOSUNNY   79  68  69 NW9       30.03F HX  81
HARLAN  *      MOSUNNY   81  68  65 NW12      30.07F HX  83
LAMONI         MOSUNNY   79  68  69 NW8       30.03F HX  81
RED OAK *      SUNNY     82  68  61 NW8       30.04S HX  85
SHENANDOAH *   SUNNY     82  68  61 VRB5      30.04F HX  85
$$

IAZ047>049-059>061-072>074-084-131800-
   CENTRAL IOWA

CITY           SKY/WX    TMP DP  RH WIND       PRES   REMARKS
AMES           MOSUNNY   80  68  66 NW12      30.01F HX  83
ANKENY *       MOSUNNY   81  70  69 W8        30.01S HX  84
CHARITON *     MOSUNNY   79  70  73 NW6       30.02F HX  81
DES MOINES     MOSUNNY   84  65  52 NW10      30.01S HX  86
GRINNELL*      SUNNY     79  68  69 NW9       30.01F HX  81
KNOXVILLE *    SUNNY     79  68  69 W5        30.00F HX  81
MARSHALLTOWN   MOSUNNY   78  69  73 NW13      29.99F HX  80
PELLA *        SUNNY     81  72  74 W3        30.02F HX  84
PERRY *          N/A     81  68  65 NW7       30.02F HX  83
$$

IAZ004>006-015-016-023>025-035-036-131800-
   NORTH CENTRAL IOWA

CITY           SKY/WX    TMP DP  RH WIND       PRES   REMARKS
ALGONA *       SUNNY     77  63  61 NW12      30.03S
CLARION *      SUNNY     79  66  65 NW10      30.01F HX  81
ESTHERVILLE    SUNNY     76  58  53 NW9       30.03S
FORT DODGE *   PTSUNNY   79  70  73 W9        30.03S HX  81
MASON CITY     SUNNY     78  64  61 NW12      30.02S HX  80
FOREST CITY *    N/A     75  61  60 NW12      30.02S
IOWA FALLS *     N/A     81  68  65 NW12      30.02S HX  83
$$

IAZ007>011-017>019-026>030-037>042-050>054-066-131800-
   NORTHEAST IOWA

CITY           SKY/WX    TMP DP  RH WIND       PRES   REMARKS
CEDAR RAPIDS   PTSUNNY   78  68  71 W9        29.98F HX  80
CHARLES CITY * SUNNY     77  64  65 W13       30.00S
CLINTON *      SUNNY     77  70  78 W9        30.00F
DECORAH *        N/A    N/A N/A N/A MISG        N/A
DUBUQUE        MOSUNNY   77  69  76 W14       29.98S
MONTICELLO *   SUNNY     79  70  73 W8        29.97F HX  81
OELWEIN *      MOSUNNY   77  77 100 W14       29.99F
WATERLOO       MOSUNNY   79  67  66 NW12      29.97F HX  81
$$

IAZ064-065-067-068-078-131800-
   EAST CENTRAL IOWA

CITY           SKY/WX    TMP DP  RH WIND       PRES   REMARKS
DAVENPORT        N/A     78  69  73 NW6       29.99F HX  80
IOWA CITY      MOSUNNY   79  70  74 W8        30.00F HX  82
MT. PLEASANT * SUNNY     77  66  69 N6        29.99F
MUSCATINE *    SUNNY     79  68  69 VRB3      29.98F HX  81
QUAD CITIES    SUNNY     79  68  69 W6        29.97F HX  81
$$

IAZ062-063-075>077-085>089-095>099-131800-
   SOUTHEAST IOWA

CITY           SKY/WX    TMP DP  RH WIND       PRES   REMARKS
BURLINGTON     MOSUNNY   76  69  79 N7        29.99F
FAIRFIELD *    SUNNY     79  68  69 VRB5      30.00F HX  81
FORT MADISON * MOSUNNY   79  72  78 NW7       30.00S HX  82
KEOKUK *       MOSUNNY   77  70  78 VRB5      29.98F
OSKALOOSA *      N/A     79  70  73 N5        30.01F HX  81
CENTERVILLE *    N/A     81  72  74 NW3       30.03F HX  84
OTTUMWA        SUNNY     80  69  69 VRB6      30.00F HX  83
WASHINGTON *   SUNNY     79  70  73 NW8       29.99F HX  81
$$

ABBREVIATIONS USED IN REMARKS
   TC - TEMPERATURES IN CELSIUS
  WCI - WIND CHILL INDEX
   HX - HEAT INDEX
  VSB - VISIBILITY
$$




USA.gov is the U.S. government's official web portal to all federal, state and local government web resources and services.